Location: Newark
(42.8481°N, 0.4872°E)
Time: 23:39:05
(UTC+00:00)

Transit 2A - Pass Details

Date: 29 October 2020
Orbit: 595 x 963 km, 66.7° (Epoch: 03 December)

Event Time Altitude Azimuth Distance (km) Brightness Sun altitude
Rises 02:43:09 0° 260° (W) 3,643 - -41.3°
Reaches altitude 10° 02:46:33 10° 277° (W) 2,698 - -40.8°
Maximum altitude 02:50:58 19° 322° (NW) 2,080 - -40.0°
Exits shadow 02:55:00 11° 4° (N) 2,560 8.9 -39.3°
Drops below altitude 10° 02:55:19 10° 7° (N) 2,634 9.0 -39.3°
Sets 02:58:36 0° 24° (NNE) 3,528 9.9 -38.7°
